This demonstration page uses our WeatherBlox Daily Observations layout. Learn more.

Left ArrowRight Arrow

34.16533, -84.80231

Hourly Observations for October 22, 2020

Temp ( °F °C ) Dew Point ( °F °C ) Humidity (%) Winds ( mph kmh ) Pressure ( in mb ) Visibility ( mi km ) Precip ( " mm )
12:53 am 00:53 Clear 63 17.2 61 16.1 93 93 Calm 30.15 1021 10 16 0.00 0.00
1:53 am 01:53 Clear 63 17.2 60 15.6 90 90 Calm 30.15 1021 10 16 0.00 0.00
2:53 am 02:53 Clear with Mist and Fog 61 16.1 59 15 93 93 Calm 30.14 1021 5 8 0.00 0.00
3:53 am 03:53 Clear 63 17.2 61 16.1 93 93 Calm 30.14 1021 8 13 0.00 0.00
4:53 am 04:53 Clear with Mist and Fog 61 16.1 58 14.4 90 90 Calm 30.14 1021 6 10 0.00 0.00
5:34 am 05:34 Clear with Mist and Fog 60 15.6 58 14.4 93 93 Calm 30.17 1022 2 2 0.00 0.00
5:45 am 05:45 Mostly Clear with Mist and Fog 60 15.6 58 14.4 93 93 Calm 30.17 1022 3 5 0.00 0.00
5:59 am 05:59 Mostly Clear with Mist and Fog 61 16.1 59 15 93 93 Calm 30.18 1022 2 3 0.00 0.00
6:12 am 06:12 Mostly Cloudy with Mist and Fog 61 16.1 59 15 93 93 Calm 30.18 1022 1 1 0.00 0.00
6:25 am 06:25 Partly Cloudy with Mist and Fog 60 15.6 58 14.4 93 93 Calm 30.18 1022 1 2 0.00 0.00
6:38 am 06:38 Mostly Cloudy with Mist and Fog 60 15.6 58 14.4 93 93 Calm 30.18 1022 1 1 0.00 0.00
6:46 am 06:46 Partly Cloudy with Mist and Fog 59 15 58 14.4 96 96 Calm 30.19 1022 1 2 0.00 0.00
6:53 am 06:53 Partly Cloudy with Mist and Fog 60 15.6 58 14.4 93 93 Calm 30.17 1022 3 5 0.00 0.00
7:53 am 07:53 Sunny 60 15.6 58 14.4 93 93 Calm 30.18 1022 7 11 0.00 0.00
8:41 am 08:41 Mostly Cloudy 63 17.2 61 16.1 93 93 Calm 30.21 1023 10 16 0.00 0.00
8:53 am 08:53 Cloudy 65 18.3 62 16.7 90 90 Calm 30.19 1022 10 16 0.00 0.00
9:53 am 09:53 Mostly Sunny 69 20.6 64 17.8 84 84 ENE 5 7 30.20 1023 10 16 0.00 0.00
10:53 am 10:53 Sunny 72 22.2 64 17.8 76 76 ENE 9 15 30.20 1023 10 16 0.00 0.00
11:53 am 11:53 Sunny 77 25 64 17.8 64 64 VRB 6 9 30.19 1022 10 16 0.00 0.00
12:53 pm 12:53 Mostly Sunny 79 26.1 63 17.2 58 58 VRB 7 11 30.17 1022 10 16 0.00 0.00
1:53 pm 13:53 Mostly Cloudy 81 27.2 63 17.2 54 54 ESE 9 15 30.14 1021 10 16 0.00 0.00
2:53 pm 14:53 Partly Cloudy 82 27.8 63 17.2 53 53 ESE 10 17 30.12 1020 10 16 0.00 0.00
3:53 pm 15:53 Mostly Sunny 81 27.2 62 16.7 53 53 E 7 11 30.10 1019 10 16 0.00 0.00
4:53 pm 16:53 Cloudy 81 27.2 64 17.8 57 57 SSE 5 7 30.09 1019 10 16 0.00 0.00
5:53 pm 17:53 Mostly Sunny 80 26.7 63 17.2 56 56 Calm 30.09 1019 10 16 0.00 0.00
6:53 pm 18:53 Sunny 71 21.7 65 18.3 81 81 Calm 30.09 1019 10 16 0.00 0.00
7:53 pm 19:53 Clear 68 20 64 17.8 87 87 Calm 30.10 1019 10 16 0.00 0.00
8:53 pm 20:53 Mostly Clear 67 19.4 63 17.2 87 87 Calm 30.11 1020 10 16 0.00 0.00
9:53 pm 21:53 Clear 65 18.3 62 16.7 90 90 Calm 30.12 1020 10 16 0.00 0.00
10:53 pm 22:53 Clear 64 17.8 61 16.1 90 90 Calm 30.11 1020 10 16 0.00 0.00
11:53 pm 23:53 Cloudy 65 18.3 62 16.7 90 90 Calm 30.11 1020 10 16 0.00 0.00

Powered by AerisWeather